Regional Weather Roundup
Issued by NWS Northern Indiana

Home | Current Version | Previous Version | Text Only | Print | Product List | Glossary Off
Versions: 1 2 3 4 5 6 7 8 9 10 11 12 13 14 15 16 17 18 19 20 21 22 23 24 25 26 27 28 29 30 31 32 33 34 35 36 37 38 39 40 41 42 43 44 45 46 47 48 49 50

000
ASUS43 KIWX 281010
RWRIWX

KIWX WEATHER ROUNDUP
NATIONAL WEATHER SERVICE NORTHERN INDIANA
600 AM EDT WED SEP 28 2016

NOTE: "FAIR" INDICATES FEW OR NO CLOUDS BELOW 12,000 FEET WITH NO
SIGNIFICANT WEATHER AND/OR OBSTRUCTIONS TO VISIBILITY.

* THESE STATIONS ARE NOT UNDER NWS QUALITY CONTROL. THEY ALSO MAY NOT
  REPORT WEATHER SUCH AS PRECIPITATION OR FOG.

INZ001>027-281100-
NORTHERN INDIANA

CITY           SKY/WX    TMP DP  RH WIND       PRES   REMARKS
GARY*          LGT RAIN  57  54  88 N12       29.78R
VALPARAISO     CLOUDY    53  45  74 W3        29.77R
MICHIGAN CITY* CLOUDY    52  48  87 MISG      29.77S
LAPORTE*       CLOUDY    54  53  97 CALM      29.76S
KNOX*          CLOUDY    50  32  50 CALM      29.76R
SOUTH BEND     CLOUDY    52  48  86 NE5       29.77S
GOSHEN         CLOUDY    50  44  80 N6        29.76S
MONTICELLO*    CLOUDY    52  42  69 NW6       29.74F
LOGANSPORT*    MOCLDY    50  46  87 N6        29.76R
ROCHESTER*     CLOUDY    55  46  71 NW3       29.76R
WARSAW*        RAIN      52  34  50 SW3       29.77R
ANGOLA*          N/A     48  36  61 NE3       29.77S
FORT WAYNE     CLOUDY    54  47  77 SE8       29.75F
HUNTINGTON*    CLOUDY    56  47  72 S3        29.75S
PERU/GRISSOM   CLOUDY    55  49  78 S5        29.72S
MARION*        CLOUDY    56  50  80 S12       29.76F

$$
INZ028>050-281100-
CENTRAL INDIANA

CITY           SKY/WX    TMP DP  RH WIND       PRES   REMARKS
LAFAYETTE      CLOUDY    54  51  90 SW3       29.76R
MUNCIE*        CLOUDY    58  53  84 S6        29.80S
INDIANAPOLIS   LGT RAIN  58  54  86 E7        29.76F

$$
MIZ043>046-050>051-056>058-064>065-071>073-077>080-281100-
SOUTHWEST LOWER MICHIGAN

CITY           SKY/WX    TMP DP  RH WIND       PRES   REMARKS
BATTLE CREEK   CLOUDY    52  47  83 N6        29.81R
BENTON HARBOR  CLOUDY    54  48  80 E8        29.78S
COLDWATER*     PTCLDY    51  46  84 NE7       29.78F
HILLSDALE*     PTCLDY    48  45  87 E5        29.79S
HOLLAND        LGT RAIN  53  51  93 CALM      29.83R
GRAND RAPIDS   LGT RAIN  52  49  89 N5        29.84R
KALAMAZOO      CLOUDY    53  47  79 N9        29.81R
STURGIS*       PTCLDY    50  46  84 NE3       29.77S
THREE RIVERS*  FAIR      52  48  87 NE3       29.79S

$$
OHZ001>008-015>018-024>025-281100-
NORTHWEST OHIO

CITY           SKY/WX    TMP DP  RH WIND       PRES   REMARKS
WAUSEON*       FAIR      48  45  87 NE3       29.80R
DEFIANCE       CLOUDY    51  46  83 E3        29.79S
FINDLAY        LGT RAIN  58  48  69 W5        29.82R
TOLEDO EXPRESS PTCLDY    49  48  97 E3        29.80S
TOLEDO METCALF CLOUDY    54  49  83 W5        29.83R
LIMA           CLOUDY    55  52  89 SE7       29.81F

$$
AND FOR LAKE MICHIGAN COASTAL AND OPEN LAKE BUOY OBSERVATIONS

STATION/POSITION TEMP    WIND        PRES    VSBY  WAVE
                 AIR SEA DIR/SP/G                  HT/PER
                 (F)     (DEG/KT/KT) (MB)    (MI)  (FT/S)
CALUMET HARBOR    54     340/  7/ 12 1007.8F
MICHIGAN CITY     55      30/  9/ 12   N/A
BURNS HARBOR      58      70/  7/ 15 1008.5
SAINT JOSEPH      54      40/  3/  5 1008.8
SOUTH LAKE BUOY   55 69  280/  6/  8 1008.8R         1/ 4
4 MI NW BRIDGMAN  57 66   50/ 12/ 14 1008.3          2/ 5
MICHIGAN CITY     58 67   70/ 10/ 12   N/A           2/ 5

$$
&&



USA.gov is the U.S. government's official web portal to all federal, state and local government web resources and services.